Location: *
(51.5000°N, 0.1100°W)
Time: 21:06:38
(UTC+00:00)

Cosmos 1745 Rocket - Pass Details

Date: 25 May 2024
Orbit: 953 x 996 km, 83.0° (Epoch: 16 June)

Event Time Altitude Azimuth Distance (km) Brightness Sun altitude
Exits shadow 01:38:48 19° 193° (SSW) 2,120 5.2 -14.2°
Maximum altitude 01:43:25 82° 280° (W) 995 4.0 -13.9°
Drops below altitude 10° 01:49:46 10° 9° (N) 2,757 7.6 -13.4°
Sets 01:52:19 0° 10° (N) 3,715 8.6 -13.2°
